Location: Newark
(39.0083°N, 20.7336°E)
Time: 14:39:00
(UTC+00:00)

N. Korean satellite - Pass Details

Date: 18 September 2021
Orbit: 450 x 495 km, 97.3° (Epoch: 19 October)

Event Time Altitude Azimuth Distance (km) Brightness Sun altitude
Rises 03:40:05 0° 16° (NNE) 2,501 10.5 -8.8°
Reaches altitude 10° 03:42:09 10° 20° (NNE) 1,629 9.6 -8.4°
Maximum altitude 03:45:36 57° 100° (E) 559 7.3 -7.7°
Drops below altitude 10° 03:49:04 10° 180° (S) 1,642 9.2 -7.0°
Sets 03:51:10 0° 184° (S) 2,524 10.1 -6.6°
